Weather History for Marion, IN

Change the Weather History Date:

Thursday, December 15, 2011

  Actual Average (KMIE) Record (KMIE)
Temperature  
Mean Temperature 45 °F 30 °F  
Max Temperature 57 °F 38 °F 66 °F (1975)
Min Temperature 33 °F 23 °F -3 °F (1963)
Degree Days  
Heating Degree Days 20 34  
Month to date heating degree days 481  
Since 1 July heating degree days 1616  
Cooling Degree Days 0 0  
Month to date cooling degree days 0  
Year to date cooling degree days 956  
Moisture  
Dew Point 39 °F    
Average Humidity 73    
Maximum Humidity 82    
Minimum Humidity 61    
Precipitation  
Precipitation 0.65 in 0.09 in 1.35 in (1971)
Month to date precipitation 1.43  
Year to date precipitation 38.67  
Sea Level Pressure  
Sea Level Pressure 29.89 in    
Wind  
Wind Speed 22 mph (WSW)    
Max Wind Speed 33 mph    
Max Gust Speed 41 mph    
Visibility 7 miles    
Events Rain , Snow    
T = Trace of Precipitation, MM = Missing Value Source: NWS Daily Summary

Daily Weather History Graph

Daily Weather History Graph

Search for Another Location

Airport:

Trip Planner

Search our weather history database for the weather conditions in past years. The results will help you decide how hot, cold, wet, or windy it might be!

Date:

Astronomy

Dec. 15, 2011 Rise Set
Actual Time 7:58 AM EST 5:16 PM EST
Civil Twilight 7:27 AM EST 5:47 PM EST
Nautical Twilight 6:53 AM EST 6:21 PM EST
Astronomical Twilight 6:20 AM EST 6:55 PM EST
Moon 10:43 PM EST (12/15) 11:13 AM EST (12/15)
Length of Visible Light 10h 19m
Length of Day
9h 18m
Waning Gibbous, 75% of the Moon is Illuminated
Dec 15
Waning Gibbous
Dec 17
Last Quarter
Dec 24
New
Jan 1
First Quarter
Jan 9
Full

Hourly Weather History & Observations

Time (EST) Temp. Windchill Dew Point Humidity Pressure Visibility Wind Dir Wind Speed Gust Speed Precip Events Conditions
12:15 AM 54.5 °F - 48.6 °F 80% 29.87 in 5.0 mi SSW 21.9 mph 27.6 mph 0.05 in Rain Light Rain
12:35 AM 54.5 °F - 48.4 °F 80% 29.85 in 4.0 mi SSW 20.7 mph 27.6 mph 0.12 in Rain Rain
12:55 AM 54.1 °F - 48.2 °F 80% 29.84 in 5.0 mi SSW 20.7 mph 25.3 mph 0.16 in Rain Rain
1:15 AM 54.0 °F - 48.2 °F 81% 29.84 in 5.0 mi SSW 25.3 mph 32.2 mph 0.03 in Rain Light Rain
1:35 AM 54.1 °F - 48.2 °F 80% 29.82 in 7.0 mi SSW 21.9 mph 29.9 mph 0.04 in Rain Light Rain
1:55 AM 54.1 °F - 48.2 °F 80% 29.81 in 4.0 mi SSW 23.0 mph 32.2 mph 0.05 in Rain Rain
2:15 AM 54.1 °F - 48.2 °F 80% 29.79 in 5.0 mi SSW 23.0 mph 27.6 mph N/A Rain Light Rain
2:35 AM 54.5 °F - 48.6 °F 80% 29.81 in 5.0 mi SSW 19.6 mph 28.8 mph 0.02 in Rain Light Rain
2:55 AM 54.5 °F - 48.6 °F 80% 29.78 in 3.0 mi SSW 18.4 mph 25.3 mph 0.11 in Rain Light Rain
3:15 AM 54.7 °F - 48.7 °F 80% 29.78 in 7.0 mi SSW 20.7 mph 31.1 mph N/A   Overcast
3:35 AM 55.2 °F - 49.1 °F 80% 29.77 in 3.0 mi SSW 23.0 mph 32.2 mph 0.03 in Rain Light Rain
3:55 AM 55.4 °F - 49.3 °F 80% 29.77 in 7.0 mi SSW 21.9 mph - 0.03 in Rain Light Rain
4:15 AM 55.6 °F - 49.5 °F 80% 29.76 in 3.0 mi SSW 21.9 mph 29.9 mph 0.02 in Rain Light Rain
4:55 AM 55.4 °F - 49.6 °F 81% 29.76 in 3.0 mi SW 17.3 mph - 0.08 in Rain Light Rain
5:15 AM 55.4 °F - 49.8 °F 81% 29.77 in 2.5 mi SW 13.8 mph 21.9 mph 0.05 in Rain Light Rain
5:35 AM 55.4 °F - 49.8 °F 81% 29.76 in 2.5 mi SSW 16.1 mph 25.3 mph 0.07 in Rain Light Rain
5:55 AM 55.4 °F - 49.6 °F 81% 29.76 in 3.0 mi SSW 16.1 mph 23.0 mph 0.08 in   Haze
6:15 AM 55.2 °F - 49.6 °F 81% 29.76 in 7.0 mi SW 19.6 mph 25.3 mph N/A   Overcast
6:35 AM 55.4 °F - 50.0 °F 82% 29.76 in 5.0 mi SW 19.6 mph 25.3 mph N/A   Haze
7:15 AM 55.8 °F - 50.0 °F 81% 29.76 in 10.0 mi SW 18.4 mph 24.2 mph N/A   Overcast
7:35 AM 55.9 °F - 50.0 °F 80% 29.76 in 5.0 mi SW 18.4 mph 25.3 mph N/A   Haze
7:55 AM 55.9 °F - 50.0 °F 80% 29.76 in 5.0 mi SW 17.3 mph 23.0 mph N/A   Haze
8:15 AM 55.9 °F - 50.0 °F 80% 29.76 in 10.0 mi SW 21.9 mph 26.5 mph 0.01 in   Overcast
8:35 AM 56.5 °F - 50.2 °F 79% 29.76 in 10.0 mi SW 19.6 mph 25.3 mph 0.01 in   Overcast
8:55 AM 56.7 °F - 50.2 °F 79% 29.75 in 10.0 mi SW 20.7 mph 26.5 mph 0.01 in   Overcast
9:15 AM 56.8 °F - 50.2 °F 78% 29.76 in 10.0 mi WSW 19.6 mph 25.3 mph N/A   Overcast
9:35 AM 57.2 °F - 50.4 °F 78% 29.75 in 10.0 mi SW 20.7 mph 25.3 mph N/A   Overcast
10:15 AM 55.4 °F - 47.8 °F 76% 29.78 in 2.0 mi West 23.0 mph 33.4 mph 0.12 in Rain Light Rain
10:35 AM 53.6 °F - 46.0 °F 76% 29.79 in 7.0 mi West 21.9 mph - 0.13 in   Overcast
10:55 AM 53.6 °F - 46.4 °F 77% 29.80 in 7.0 mi West 16.1 mph 24.2 mph 0.13 in   Overcast
11:15 AM 53.6 °F - 46.4 °F 77% 29.80 in 7.0 mi West 17.3 mph - N/A   Overcast
11:35 AM 52.2 °F - 45.0 °F 76% 29.82 in 10.0 mi WNW 19.6 mph 27.6 mph N/A   Overcast
11:55 AM 50.0 °F - 43.0 °F 77% 29.83 in 10.0 mi West 24.2 mph 33.4 mph N/A   Overcast
12:15 PM 49.3 °F - 41.7 °F 75% 29.84 in 7.0 mi WNW 20.7 mph 29.9 mph N/A   Overcast
12:35 PM 48.2 °F - 40.3 °F 74% 29.84 in 10.0 mi WNW 21.9 mph - N/A   Overcast
12:55 PM 46.4 °F 37.2 °F 38.8 °F 75% 29.85 in 7.0 mi West 29.9 mph 36.8 mph N/A   Overcast
1:35 PM 44.8 °F 35.5 °F 36.3 °F 72% 29.87 in 10.0 mi WNW 26.5 mph 32.2 mph N/A   Overcast
1:55 PM 44.1 °F 34.4 °F 35.1 °F 71% 29.88 in 7.0 mi WNW 27.6 mph 34.5 mph N/A   Overcast
2:15 PM 43.2 °F 33.2 °F 33.8 °F 70% 29.89 in 7.0 mi West 27.6 mph 33.4 mph N/A   Overcast
2:35 PM 42.6 °F 33.1 °F 32.7 °F 68% 29.90 in 10.0 mi WNW 24.2 mph 32.2 mph N/A   Overcast
2:55 PM 42.3 °F 31.9 °F 32.0 °F 67% 29.92 in 10.0 mi West 27.6 mph 33.4 mph N/A   Overcast
3:15 PM 41.7 °F 31.0 °F 31.5 °F 67% 29.93 in 10.0 mi West 28.8 mph 35.7 mph N/A   Overcast
3:35 PM 41.2 °F 30.7 °F 31.1 °F 67% 29.94 in 5.0 mi West 26.5 mph 33.4 mph N/A   Unknown
3:55 PM 41.0 °F 30.5 °F 30.0 °F 65% 29.95 in 5.0 mi West 26.5 mph 34.5 mph N/A   Unknown
4:15 PM 40.5 °F 30.7 °F 29.3 °F 64% 29.96 in 7.0 mi West 21.9 mph 33.4 mph N/A   Overcast
4:35 PM 40.1 °F 29.0 °F 28.6 °F 63% 29.98 in 7.0 mi West 27.6 mph 35.7 mph N/A   Overcast
4:55 PM 39.4 °F 27.6 °F 27.3 °F 62% 29.99 in 5.0 mi West 29.9 mph 35.7 mph N/A   Unknown
5:15 PM 38.8 °F 26.5 °F 27.1 °F 63% 30.01 in 7.0 mi West 32.2 mph 39.1 mph N/A   Unknown
5:35 PM 38.3 °F 26.8 °F 27.0 °F 64% 30.02 in 7.0 mi West 26.5 mph 33.4 mph N/A   Unknown
5:55 PM 37.9 °F 27.1 °F 27.7 °F 67% 30.03 in 10.0 mi West 23.0 mph 31.1 mph N/A Snow Light Snow
6:15 PM 37.4 °F 26.1 °F 27.1 °F 66% 30.04 in 10.0 mi WNW 24.2 mph 33.4 mph N/A   Overcast
6:35 PM 36.7 °F 23.6 °F 26.8 °F 67% 30.06 in 10.0 mi WNW 32.2 mph 38.0 mph N/A   Overcast
6:55 PM 35.4 °F 21.6 °F 26.1 °F 69% 30.08 in 5.0 mi West 33.4 mph 41.4 mph N/A Snow Light Snow
7:15 PM 34.3 °F 21.0 °F 23.7 °F 65% 30.09 in 5.0 mi West 28.8 mph 39.1 mph N/A Snow Light Snow
7:35 PM 33.6 °F 21.6 °F 22.3 °F 63% 30.11 in 10.0 mi WNW 21.9 mph 32.2 mph N/A   Overcast
7:55 PM 33.8 °F 20.8 °F 21.9 °F 62% 30.11 in 10.0 mi WNW 26.5 mph 34.5 mph N/A   Overcast
8:15 PM 33.8 °F 22.5 °F 21.6 °F 61% 30.12 in 5.0 mi WNW 19.6 mph 27.6 mph N/A Snow Light Snow
8:35 PM 33.8 °F 22.2 °F 22.1 °F 62% 30.13 in 7.0 mi WNW 20.7 mph 25.3 mph N/A   Overcast
8:55 PM 33.8 °F 23.5 °F 22.1 °F 62% 30.14 in 10.0 mi West 16.1 mph - N/A   Overcast
9:15 PM 33.8 °F 23.2 °F 22.8 °F 64% 30.15 in 7.0 mi WNW 17.3 mph 24.2 mph N/A Snow Light Snow
9:35 PM 33.6 °F 22.6 °F 22.1 °F 63% 30.16 in 7.0 mi WNW 18.4 mph 21.9 mph N/A Snow Light Snow
9:55 PM 33.4 °F 23.5 °F 22.3 °F 64% 30.17 in 5.0 mi WNW 15.0 mph 21.9 mph N/A   Haze
10:15 PM 33.3 °F 22.8 °F 22.1 °F 64% 30.18 in 10.0 mi WNW 16.1 mph 25.3 mph N/A   Overcast
10:35 PM 33.4 °F 22.7 °F 21.6 °F 62% 30.18 in 10.0 mi WNW 17.3 mph 28.8 mph N/A   Overcast
10:55 PM 33.3 °F 23.2 °F 21.9 °F 63% 30.19 in 10.0 mi WNW 15.0 mph 25.3 mph N/A   Overcast
11:15 PM 33.1 °F 21.9 °F 21.9 °F 64% 30.19 in 7.0 mi WNW 18.4 mph 24.2 mph N/A Snow Light Snow
11:35 PM 32.5 °F 21.2 °F 21.2 °F 63% 30.19 in 7.0 mi WNW 18.4 mph 26.5 mph N/A Snow Light Snow
11:55 PM 32.4 °F 22.5 °F 21.0 °F 63% 30.20 in 5.0 mi WNW 13.8 mph 24.2 mph N/A Snow Light Snow